Location: Unspecified
(0.0000°N, 0.0000°E)
Time: 17:48:42
(UTC+00:00)

Courier 1B Rocket - Pass Details

Date: 15 April 2021
Orbit: 920 x 1202 km, 28.3° (Epoch: 14 May)

Event Time Altitude Azimuth Distance (km) Brightness Sun altitude
Rises 18:11:03 0° 252° (WSW) 3,605 9.2 -2.7°
Reaches altitude 10° 18:13:42 10° 257° (WSW) 2,688 8.7 -3.4°
Maximum altitude 18:19:57 49° 331° (NNW) 1,272 6.0 -4.9°
Drops below altitude 10° 18:26:38 10° 44° (NE) 2,869 7.1 -6.6°
Sets 18:29:34 0° 50° (NE) 3,869 7.7 -7.3°
